Station BUFN6 - 9063020 - Buffalo, NY Image indicating link to RSS feed of recent meteorological observations for station BUFN6


Conditions at BUFN6 as of
(1:00 am EDT)
0500 GMT on 05/20/2024:
     

Click on the graph icon in the table below to see a time series plot of the last five days of that observation.

5-day plot - Wind Speed Wind Speed (WSPD): 0.0 kts
5-day plot - Wind Gust Wind Gust (GST): 1.9 kts
5-day plot - Atmospheric Pressure Atmospheric Pressure (PRES):29.96 in
5-day plot - Pressure Tendency Pressure Tendency (PTDY):+0.01 in ( Rising )
5-day plot - Air Temperature Air Temperature (ATMP): 63.1 °F
5-day plot - Water Temperature Water Temperature (WTMP): 62.2 °F
5-day plot - Dew Point Dew Point (DEWP): 60.6 °F
5-day plot - Wind Speed at 10 Meters Wind Speed at 10 meters (WSPD10M): 0.0 kts
5-day plot - Wind Speed at 20 Meters Wind Speed at 20 meters (WSPD20M): 0.0 kts
5-day plot -  Wind Speed, Wind Gust and Atmospheric Pressure Combined plot of Wind Speed, Gust, and Air Pressure
NOS Water Level Observation Network Water Level
Previous observations
TIME
(EDT)
5-day plot - Wind Direction
WDIR
 
5-day plot - Wind Speed
WSPD
kts
5-day plot - Wind Gust
GST
kts
5-day plot - Wave Height
WVHT
ft
5-day plot - Dominant Wave Period
DPD
sec
5-day plot - Average Wave Period
APD
sec
5-day plot - Mean Wave Direction
MWD
 
5-day plot - Atmospheric Pressure
PRES
in
5-day plot - Pressure Tendency
PTDY
in
5-day plot - Air Temperature
ATMP
°F
5-day plot - Water Temperature
WTMP
°F
5-day plot - Dew Point
DEWP
°F
5-day plot - Salinity
SAL
psu
5-day plot - Visibility
VIS
nmi
5-day plot - Tide (above MLLW)
TIDE
ft
2024-05-20 12:54 am SW 1.9 1.9----29.96- 63.9 62.2 61.2---
2024-05-20 12:48 am SW 1.9 1.9----29.96- 64.2 62.2 61.2---
2024-05-20 12:42 am- 0.0 1.0----29.96- 64.4 62.2 61.2---
2024-05-20 12:36 am SW 1.0 1.0----29.96- 64.4 62.2 61.0---
2024-05-20 12:30 am- 0.0 1.0----29.96- 64.6 62.2 61.0---
2024-05-20 12:24 am- 0.0 1.0----29.96- 64.8 62.1 61.0---
2024-05-20 12:18 am- 0.0 0.0----29.96- 64.2 62.1 60.6---
2024-05-20 12:12 am- 0.0 0.0----29.96- 64.4 61.9 60.8---
2024-05-20 12:06 am- 0.0 1.0----29.96- 64.6 61.9 60.8---
2024-05-20 12:00 am W 1.0 1.9----29.96+0.02 64.8 61.9 61.2---
2024-05-19 11:54 pm- 0.0 1.0----29.96- 64.8 61.9 61.0---
2024-05-19 11:48 pm- 0.0 1.0----29.96- 64.6 62.1 61.0---
2024-05-19 11:42 pm- 0.0 1.0----29.96- 64.6 62.4 61.5---
2024-05-19 11:36 pm- 0.0 1.0----29.95- 64.4 62.2 61.5---
2024-05-19 11:30 pm- 0.0 1.9----29.95- 64.2 62.1 61.7---
2024-05-19 11:24 pmESE 1.0 1.9----29.95- 63.9 61.7 61.5---
2024-05-19 11:18 pm SE 1.0 1.0----29.95-- 61.7----
2024-05-19 11:12 pm SE 1.0 1.9----29.95-- 61.9----
2024-05-19 11:06 pm- 0.0 1.0----29.95-- 61.9----
2024-05-19 11:00 pm- 0.0 0.0----29.96+0.02 63.0 61.7 61.2---
2024-05-19 10:54 pm- 0.0 1.0----29.96- 63.1 61.7 61.2---
2024-05-19 10:48 pm- 0.0 0.0----29.96- 63.1 61.7 61.2---
2024-05-19 10:42 pm- 0.0 0.0----29.96- 63.3 61.9 61.2---
2024-05-19 10:36 pm- 0.0 0.0----29.95- 63.5 61.9 61.2---
2024-05-19 10:30 pm- 0.0 1.0----29.95- 63.7 61.5 61.3---
2024-05-19 10:24 pm- 0.0 1.0----29.95- 63.9 61.3 61.3---
2024-05-19 10:18 pm- 0.0 1.0----29.95- 64.0 61.2 61.7---
2024-05-19 10:12 pmSSE 1.0 1.9----29.95- 63.9 61.5 61.5---
2024-05-19 10:06 pmSSE 1.9 2.9----29.95- 63.7 61.7 61.3---
2024-05-19 10:00 pm S 2.9 2.9----29.95- 63.7 61.7 61.3---
2024-05-19 09:54 pmSSE 1.9 2.9----29.95- 63.9 61.9 61.3---
2024-05-19 09:48 pmSSE 1.9 1.9----29.95- 63.9 62.2 61.2---
2024-05-19 09:42 pm S 1.0 2.9----29.95- 63.9 62.4 61.2---
2024-05-19 09:36 pm S 1.9 2.9----29.95- 64.0 62.6 61.0---
2024-05-19 09:30 pmSSW 1.9 2.9----29.95-- 62.8----
2024-05-19 09:24 pm S 1.9 2.9----29.95-- 62.4----
2024-05-19 09:18 pm S 1.9 2.9----29.95-- 62.1----
2024-05-19 09:12 pmSSE 1.9 2.9----29.95-- 61.9----
2024-05-19 09:06 pmSSE 1.9 2.9----29.95-- 62.4----
2024-05-19 09:00 pmSSE 1.0 1.9----29.94+0.00- 62.6----
2024-05-19 08:54 pmSSE 1.0 2.9----29.94-- 62.8----
2024-05-19 08:48 pm S 1.9 2.9----29.94- 64.0 62.8 60.8---
2024-05-19 08:42 pmSSE 2.9 4.1----29.94- 64.0 62.8 60.8---
2024-05-19 08:36 pm S 2.9 4.1----29.94- 63.7 62.8 60.8---
2024-05-19 08:30 pmSSE 1.9 4.1----29.94- 64.0 62.4 60.8---
2024-05-19 08:24 pm S 2.9 4.1----29.94- 64.0 62.8 60.8---
2024-05-19 08:18 pm---------- 62.6----
2024-05-19 08:12 pm---------- 62.6----
2024-05-19 08:06 pm---------- 62.8----
2024-05-19 08:00 pmSSE 4.1 5.1----29.93+0.00- 63.0----
2024-05-19 07:54 pmSSE 4.1 5.1----29.93-- 63.3----
2024-05-19 07:48 pmSSE 2.9 4.1------------
2024-05-19 07:42 pmSSE 2.9 5.1------------
2024-05-19 07:36 pmSSE 2.9 4.1------------
2024-05-19 07:30 pmSSE 4.1 5.1----29.93- 64.4 62.1 60.3---
2024-05-19 07:24 pm S 2.9 4.1----29.93- 64.6 62.6 60.3---
2024-05-19 07:18 pm S 1.9 5.1----29.93- 64.4 63.1 60.3---
2024-05-19 07:12 pmSSE 1.9 2.9----29.93- 64.6 62.2 60.4---
2024-05-19 07:06 pmSSW 1.9 4.1----29.93- 64.2 62.2 60.1---
2024-05-19 07:00 pmSSW 2.9 4.1------- 61.9----
2024-05-19 06:54 pmSSW 2.9 4.1------- 63.0----
2024-05-19 06:48 pmSSW 1.9 4.1----29.94-- 62.8----
2024-05-19 06:42 pmSSW 1.9 2.9----29.94-- 63.0----
2024-05-19 06:36 pmSSW 1.0 1.9----29.94-- 63.1----
2024-05-19 06:30 pmWSW 1.0 4.1----29.94-- 63.0----
2024-05-19 06:24 pmWSW 2.9 4.1----29.94-- 62.6----
2024-05-19 06:18 pm-------29.94- 65.5 61.9 60.3---
2024-05-19 06:12 pm-------29.94- 64.8 61.9 60.1---
2024-05-19 06:06 pm-------29.94- 64.8 62.2 60.1---
2024-05-19 06:00 pmWSW 4.1 6.0----29.94-0.02 64.9 62.4 60.1---
2024-05-19 05:54 pm W 1.0 4.1----29.94- 65.5 63.5 60.3---
2024-05-19 05:48 pm- 0.0 2.9----29.94- 64.6 63.5 60.4---
2024-05-19 05:42 pmSSW 1.9 2.9----29.94- 64.8 63.9 60.6---
2024-05-19 05:36 pm SW 2.9 5.1----29.94- 64.6 63.0 60.4---
2024-05-19 05:30 pm SW 2.9 4.1----29.94- 64.6 62.2 60.6---
2024-05-19 05:24 pm S 2.9 4.1----29.94- 64.0 62.8 60.8---
2024-05-19 05:18 pmSSE 4.1 5.1----29.94- 63.7 62.8 60.8---
2024-05-19 05:12 pmSSE 4.1 5.1----29.94- 63.7 62.4 60.8---
2024-05-19 05:06 pmSSE 5.1 6.0----29.93- 63.7 62.1 60.8---
2024-05-19 05:00 pmSSE 4.1 5.1----29.94-0.02 63.9 62.2 60.8---
2024-05-19 04:54 pm S 2.9 5.1----29.94- 63.1 62.2 60.3---
2024-05-19 04:48 pm S 4.1 5.1----29.94- 63.5 62.2 60.3---
2024-05-19 04:42 pm S 4.1 5.1----29.94- 63.0 62.6 59.9---
2024-05-19 04:36 pm S 5.1 6.0----29.94- 63.0 62.6 60.1---
2024-05-19 04:30 pm S 6.0 6.0----29.94- 63.1 62.4 60.1---
2024-05-19 04:24 pm S 4.1 5.1----29.94- 63.9 63.3 60.3---
2024-05-19 04:18 pm S 4.1 6.0----29.94- 64.0 64.9 59.9---
2024-05-19 04:12 pmSSE 4.1 5.1----29.95- 65.3 62.2 60.4---
2024-05-19 04:06 pmSSE 4.1 6.0----29.95- 64.8 62.4 60.4---
2024-05-19 04:00 pm S 5.1 7.0----29.95-0.02- 62.8----
2024-05-19 03:54 pmSSW 6.0 8.0----29.95-- 63.5----
2024-05-19 03:48 pmSSW 6.0 7.0----29.95-- 63.0----
2024-05-19 03:42 pmSSW 4.1 7.0----29.95-- 62.6----
2024-05-19 03:36 pm SW 5.1 7.0----29.95-- 63.3----
2024-05-19 03:30 pmSSW 5.1 8.0----29.96- 64.4 63.3 59.7---
2024-05-19 03:24 pm SW 7.0 8.0----29.96- 64.2 63.0 59.7---
2024-05-19 03:18 pm SW 7.0 8.9----29.96- 64.0 62.4 59.5---
2024-05-19 03:12 pm SW 7.0 8.0----29.96- 64.0 62.1 59.5---
2024-05-19 03:06 pm SW 5.1 8.0----29.96- 64.0 63.0 59.7---
2024-05-19 03:00 pm SW 6.0 8.0----29.96-0.02- 62.6----
2024-05-19 02:54 pm SW 6.0 7.0----29.96-- 62.2----
2024-05-19 02:48 pm SW 5.1 7.0----29.96- 63.9 62.8 59.7---
2024-05-19 02:42 pm SW 7.0 8.0----29.96- 63.3 63.3 59.5---
2024-05-19 02:36 pmWSW 7.0 8.0----29.96- 63.3 63.5 59.5---
2024-05-19 02:30 pmWSW 7.0 8.0----29.96- 63.3 63.1 59.4---
2024-05-19 02:24 pm SW 7.0 8.0----29.96- 63.3 62.8 59.4---
2024-05-19 02:18 pm SW 6.0 8.9----29.96- 63.3 62.8 59.2---
2024-05-19 02:12 pmWSW 8.0 8.9----29.96- 63.3 62.2 59.0---
2024-05-19 02:06 pmWSW 7.0 8.9----29.96- 63.3 62.4 59.0---
2024-05-19 02:00 pm SW 5.1 7.0----29.96-0.02 63.5 62.4 59.2---
2024-05-19 01:54 pm SW 5.1 7.0----29.96- 63.5 62.2 59.2---
2024-05-19 01:48 pm SW 6.0 8.0----29.96- 63.3 62.1 59.2---
2024-05-19 01:42 pmWSW 7.0 8.0----29.96- 63.1 61.7 59.0---
2024-05-19 01:36 pmWSW 7.0 8.0----29.96- 63.0 62.2 59.0---
2024-05-19 01:30 pmWSW 7.0 8.0----29.97- 63.0 63.0 58.8---
2024-05-19 01:24 pmWSW 7.0 8.0----29.96- 63.1 63.1 58.8---
2024-05-19 01:18 pmWSW 7.0 8.0----29.97-- 62.4----
2024-05-19 01:12 pmWSW 7.0 8.0----29.97-- 61.3----
2024-05-19 01:06 pm SW 5.1 7.0----29.97-- 61.9----
2024-05-19 01:00 pm SW 7.0 8.0----29.97+0.00- 62.1----
2024-05-19 12:54 pmWSW 8.0 8.9----29.98-- 62.2----
2024-05-19 12:48 pmWSW 8.9 8.9----29.98- 62.8 62.4 58.8---
2024-05-19 12:42 pmWSW 8.9 9.9----29.98- 62.4 61.3 58.6---
2024-05-19 12:36 pmWSW 8.9 9.9----29.98- 62.1 61.3 58.5---
2024-05-19 12:30 pmWSW 8.9 8.9----29.98- 62.4 62.1 58.6---
2024-05-19 12:24 pmWSW 8.0 8.9----29.98- 62.2 61.3 58.5---
2024-05-19 12:18 pmWSW 8.0 8.9----29.98- 62.1 61.2 58.5---
2024-05-19 12:12 pmWSW 8.0 8.9----29.98- 61.5 61.2 58.3---
2024-05-19 12:06 pmWSW 8.0 9.9----29.98- 61.7 61.2 58.3---
2024-05-19 12:00 pmWSW 8.0 8.9----29.98+0.00 62.1 61.7 58.3---
2024-05-19 11:54 amWSW 8.0 8.0----29.98- 62.4 61.5 58.5---
2024-05-19 11:48 am SW 7.0 8.9----29.98- 62.4 61.7 58.6---
2024-05-19 11:42 amWSW 8.0 9.9----29.98- 62.4 61.5 58.5---
2024-05-19 11:36 am SW 7.0 8.9----29.98- 62.2 62.1 58.5---
2024-05-19 11:30 amWSW 8.0 8.9----29.98- 62.2 62.1 58.3---
2024-05-19 11:24 amWSW 8.0 8.9----29.98- 62.2 61.9 58.3---
2024-05-19 11:18 am-------29.98- 62.1 61.7 58.3---
2024-05-19 11:12 am-------29.98- 61.7 61.7 58.3---
2024-05-19 11:06 am-------29.98- 61.5 61.7 58.3---
2024-05-19 11:00 am-------29.98+0.01 61.7 61.3 58.5---
2024-05-19 10:54 am-------29.98- 62.1 61.5 58.5---
2024-05-19 10:48 am-------29.98- 61.9 61.3 58.6---
2024-05-19 10:42 am-------29.98- 61.9 61.3 58.5---
2024-05-19 10:36 am-------29.98- 62.2 61.5 58.8---
2024-05-19 10:30 amWSW 5.1 6.0----29.98- 62.1 61.5 58.8---
2024-05-19 10:24 am W 5.1 6.0----29.98- 61.5 61.2 58.6---
2024-05-19 10:18 am W 2.9 4.1----29.98- 61.5 61.0 58.6---
2024-05-19 10:12 amWNW 1.9 1.9----29.98- 61.7 60.8 58.8---
2024-05-19 10:06 amWNW 1.9 1.9----29.98- 61.7 61.0 58.8---
2024-05-19 10:00 amWNW 1.9 1.9----29.98+0.02- 61.0----
2024-05-19 09:54 amWNW 1.9 1.9----29.98-- 60.6----
2024-05-19 09:48 am-------29.98- 61.5 60.8 59.2---
2024-05-19 09:42 am-------29.98- 60.8 61.2 59.0---
2024-05-19 09:36 am-------29.98- 60.1 61.0 58.6---
2024-05-19 09:30 amNNW 1.9 2.9----29.98-- 61.2----
2024-05-19 09:24 am NW 2.9 4.1----29.98-- 61.2----
2024-05-19 09:18 am NW 2.9 4.1----29.98-- 61.2----
2024-05-19 09:12 am NW 2.9 2.9----29.98-- 61.3----
2024-05-19 09:06 am NW 2.9 2.9----29.98-- 61.3----
2024-05-19 09:00 amNNW 1.9 1.9----29.97+0.03- 61.3----
2024-05-19 08:54 amNNW 1.0 1.9----29.97-- 61.5----
2024-05-19 08:48 am- 0.0 1.0----29.97- 56.5 61.5 56.5---
2024-05-19 08:42 am- 0.0 1.0----29.98- 56.5 61.7 56.3---
2024-05-19 08:36 am- 0.0 1.9----29.98- 55.9 61.9 55.9---
2024-05-19 08:30 am-------29.98- 55.6- 55.6---
2024-05-19 08:24 am-------29.98- 55.6- 55.6---
2024-05-19 08:18 am W 4.1 4.1----29.97-- 61.5----
2024-05-19 08:12 am W 2.9 2.9----29.97-- 61.5----
2024-05-19 08:06 amWSW 2.9 4.1----29.97-- 61.3----
2024-05-19 08:00 amWSW 2.9 4.1----29.97+0.04 56.3 61.2 55.9---
2024-05-19 07:42 am S 2.9 4.1----29.96- 56.8 61.3 56.8---
2024-05-19 07:36 am S 2.9 4.1----29.96- 57.0 61.5 57.0---
2024-05-19 07:30 am S 2.9 5.1----29.96- 57.2 61.5 57.2---
2024-05-19 07:24 am S 2.9 5.1----29.96- 57.4 61.5 57.4---
2024-05-19 07:18 amSSE 4.1 5.1----29.96- 57.4 61.2 57.4---
2024-05-19 07:12 am S 5.1 5.1----29.96- 57.4 61.0 57.2---
2024-05-19 07:06 amSSE 2.9 5.1----29.96- 57.6 61.2 57.6---
2024-05-19 07:00 amSSE 4.1 4.1----29.96+0.03------
2024-05-19 06:54 amSSE 4.1 5.1----29.96-------
2024-05-19 06:48 am S 4.1 4.1----29.96-- 61.5----
2024-05-19 06:42 am S 4.1 4.1----29.95-- 61.3----
2024-05-19 06:36 am S 1.9 4.1----29.96-- 61.2----
2024-05-19 06:30 amSSE 2.9 5.1----29.95- 57.7 61.2----
2024-05-19 06:24 amSSE 4.1 4.1----29.95- 57.7 61.2----
2024-05-19 06:18 amSSE 4.1 4.1----29.95-- 61.3----
2024-05-19 06:12 am S 1.9 2.9----29.95-- 61.2----
2024-05-19 06:06 am SE 2.9 2.9----29.94-- 61.0----
2024-05-19 06:00 am-------29.94+0.03------
2024-05-19 05:54 am-------29.94-------
2024-05-19 05:48 am- 0.0 1.9----29.94- 57.0 61.0 56.8---
2024-05-19 05:42 am SW 1.0 1.9----29.94- 57.0 61.2 56.8---
2024-05-19 05:36 amWNW 1.0 1.9----29.94- 56.7 61.2 56.5---
2024-05-19 05:30 am NW 1.0 1.9----29.94- 57.0 61.2 56.7---
2024-05-19 05:24 am NW 1.0 2.9----29.94- 57.4 61.0 57.4---
2024-05-19 05:18 amWNW 2.9 4.1----29.94- 56.8 61.2 56.7---
2024-05-19 05:12 am NW 1.0 2.9----29.93- 57.0 61.2 56.8---
2024-05-19 05:06 amWNW 2.9 4.1----29.93- 56.7 61.3 56.5---
2024-05-19 05:00 amWNW 1.9 5.1----29.93+0.01 56.7 61.3 56.7---
2024-05-19 04:54 am NW 1.9 4.1----29.93- 56.8 61.3 56.7---
2024-05-19 04:48 am NW 4.1 6.0----29.93- 56.8 61.3 56.8---
2024-05-19 04:42 am NW 5.1 5.1----29.93- 56.7 61.3 56.7---
2024-05-19 04:36 am NW 5.1 5.1----29.93- 56.3 61.2 56.3---
2024-05-19 04:30 am NW 6.0 6.0----29.93- 56.5 61.0 56.5---
2024-05-19 04:24 am NW 4.1 4.1----29.93- 56.7 61.0 56.7---
2024-05-19 04:18 amNNW 1.9 2.9----29.93- 56.8 60.8 56.8---
2024-05-19 04:12 amNNW 1.9 2.9----29.93- 57.0 60.6 57.0---
2024-05-19 04:06 amNNW 4.1 5.1----29.93- 56.7 60.4 56.7---
2024-05-19 04:00 am NW 2.9 4.1----29.93+0.02 56.7 60.4 56.5---
2024-05-19 03:54 amNNW 2.9 5.1----29.93- 56.8 60.4 56.8---
2024-05-19 03:48 am NW 5.1 6.0----29.93- 56.7 60.4 56.7---
2024-05-19 03:42 am NW 5.1 8.0----29.93- 56.5 60.4 56.5---
2024-05-19 03:36 am NW 8.0 8.0----29.92- 56.7 60.4 56.7---
2024-05-19 03:30 am NW 6.0 6.0----29.92- 57.0 60.6 57.0---
2024-05-19 03:24 am NW 4.1 4.1----29.92- 57.0 60.6 57.0---
2024-05-19 03:18 am NW 4.1 5.1----29.92- 57.4 60.8 57.4---
2024-05-19 03:12 am NW 5.1 5.1----29.92- 57.2 60.6 57.2---
2024-05-19 03:06 am NW 5.1 5.1----29.92- 57.4 60.4 57.4---
2024-05-19 03:00 am NW 5.1 7.0----29.92+0.01 57.0 60.4 57.0---
2024-05-19 02:54 am NW 5.1 6.0----29.92- 57.2 60.6 57.0---
2024-05-19 02:48 am N 4.1 5.1----29.92- 58.5 60.6 58.3---
2024-05-19 02:42 am N 2.9 4.1----29.92- 58.6 60.8 58.3---
2024-05-19 02:36 am N 4.1 5.1----29.92- 58.8 61.0 58.3---
2024-05-19 02:30 am N 2.9 6.0----29.92- 58.8 61.0 58.1---
2024-05-19 02:24 am N 4.1 5.1----29.92- 58.8 61.0 58.1---
2024-05-19 02:18 amNNW 2.9 5.1----29.92- 59.0 60.6 58.1---
2024-05-19 02:12 am N 2.9 5.1----29.92- 59.2 60.4 58.1---
2024-05-19 02:06 amNNW 4.1 5.1----29.91- 59.2 60.6 58.1---
2024-05-19 02:00 amNNW 5.1 6.0----29.91+0.00 59.0 60.6 57.9---
2024-05-19 01:54 amNNW 5.1 6.0----29.91- 59.2 60.6 58.1---
2024-05-19 01:48 amNNW 5.1 6.0----29.91- 59.2 60.6 58.1---
2024-05-19 01:42 amNNW 5.1 5.1----29.91- 59.4 60.8 58.1---
2024-05-19 01:36 amNNW 4.1 5.1----29.91- 59.5 60.8 58.3---
2024-05-19 01:30 amNNW 4.1 5.1----29.91- 59.4 60.8 58.1---
2024-05-19 01:24 amNNW 2.9 5.1----29.91- 59.4 60.8 58.1---
2024-05-19 01:18 amNNW 4.1 4.1----29.91- 59.2 61.0 57.9---
2024-05-19 01:12 am NW 4.1 4.1----29.91- 59.4 61.0 58.1---
2024-05-19 01:06 amNNW 2.9 4.1----29.91- 59.4 60.8 58.1---
2024-05-19 01:00 amNNW 4.1 5.1----29.91+0.00 59.4 60.6 58.3---
2024-05-19 12:54 amNNW 5.1 5.1----29.91- 60.1 60.6 58.3---